F. Ocaña. Measurers F. Ocana, M. Micheli. 0.56-m f/2.52 astrograph
prime-focus corrector + 4K CCD.
(W68) ATLAS Chile, Rio Hurtado (S30.471010 W70.764980) Chile. Observers L.
Denneau, R. Siverd, J. Tonry, H. Weiland. Measurers L. Denneau, N.
Erasmus, A. Fitzsimmons, A. Lawrence, J. Robinson, R. Siverd, J. Tonry, H.
Weiland. 0.5-m reflector + CCD.
(W85) Cerro Tololo-LCO A (S30.167404 W70.804810) Chile. Observers T.
Lister, S. Greenstreet, E. Gomez. Measurer T. Lister. 1.0-m f/8
Ritchey-Chrétien + CCD.
(W87) Cerro Tololo-LCO C (S30.167454 W70.804680) Chile. Observer J. D.
Armstrong. Measurer T. Lister. 1.0-m f/8.0 Ritchey-Chrétien + CCD.
(W89) Cerro Tololo-LCO Aqawan A {#}1 (S30.167661 W70.804670) Chile. Observer
A. Hale. Measurer R. Miles. 0.40-m f/8 Schmidt-Cassegrain + CCD.
(X03) Observatoire SADR, Poroto (S30.533914 W70.796390) Chile. Observers
J. L. Virlichie, P. Traverse. 0.35-m f/4.7 Newtonian reflector + CCD.
(X09) Deep Random Survey, Rio Hurtado (S30.526310 W70.853300) Chile.
(Y05) SONEAR Wykrota-CEAMIG, Serra da Piedade (S19.824251 W43.690000)
Brazil. Observer C. Jacques. 0.45-m f/2.9 reflector + CMO.
Orbital elements: A11cek3
Perihelion 2027 May 5.22763 +/- 1.48 TT = 5:27:47 (JD 2461530.72763)
Epoch 2024 Nov 6.0 TT = JDT 2460620.5 AutoNEOCP
q 3.84297352 +/- 0.00385 (J2000 ecliptic)
H 9.63 G 0.15 Peri. 352.36898 +/- 0.027
z -0.0009179495 +/- 0.000638 Node 100.67603 +/- 0.017
e 1.0035276 +/- 0.00245 Incl. 52.38530 +/- 0.0029
From 108 observations 2024 Oct. 2-Nov. 6; mean residual 0".31
Residuals in arcseconds: 241002 M22 .00 .24- 241015 W85 .17+ .20- 241025 L81 .12+ .23- 241002 M22 .70- .48+ 241016 W57 .18- .24- 241025 L81 .04+ .35- 241002 M22 .32- .35- 241016 W57 .53- .37+ 241026 X03 .23+ .33- 241002 M22 .24+ .29+ 241018 M21 .40+ .13+ 241026 X03 .11+ .01+ 241003 X09 .14+ .21- 241018 M21 .36+ .37- 241026 X03 .06+ .16- 241003 X09 .22+ .19- 241019 W89 .29- .06- 241026 X03 .38- .04+ 241003 Q62 .09+ .01- 241019 W89 .19+ .03+ 241026 M21 .30+ .08- 241003 Q62 .01- .11- 241019 W89 .14+ .02+ 241026 M21 .39+ .15- 241003 E23 .08- .57+ 241020 E94 .22- .01+ 241027 E94 .35- .03+ 241003 E23 .45- .23+ 241020 E94 .46- .68+ 241027 E94 .13- .07+ 241003 E23 .30- .88+ 241020 E94 1.1- 1.1+ 241027 E94 .21- .14+ 241004 W87 .16+ .10- 241020 M49 .17+ .04+ 241027 E62 .23- .01+ 241004 W87 .13+ .13- 241020 M49 .57+ .18- 241027 E62 .14+ .15- 241004 W87 .11+ .17- 241020 M49 .44+ .01- 241027 E62 .23+ .20- 241004 W87 .09+ .10- 241022 E94 .01- .22- 241029 Q62 .03- .14+ 241004 X09 .32- .13+ 241022 E94 .20- .23- 241029 Q62 .11+ .26- 241004 X09 .21+ .11- 241022 E94 .33- .23- 241029 Q62 .37+ .11+ 241004 X09 .40+ .05+ 241023 W89 .16+ .06+ 241029 Q62 .15+ .16- 241004 M49 .09+ .10+ 241023 W89 .18+ .05- 241029 Q62 .36+ .23- 241004 M49 .02- .14- 241023 W89 .12+ .03+ 241030 M22 .63- .53- 241004 M49 .07+ .28- 241023 X03 .41+ .03- 241030 M22 .31- .20- 241006 Y05 .06+ .16- 241023 X03 .01+ .15+ 241031 M22 .33- .37+ 241006 I47 .24+ .37- 241023 X03 .40+ .08- 241031 M22 .53+ .46+ 241006 Y05 .88+ .12- 241023 X03 .09+ .41- 241031 E94 .09- .14+ 241006 Y05 .13- .14- 241024 E94 .27- .10+ 241031 E94 .31- .08+ 241006 I47 .10- .18+ 241024 E94 .18- .41+ 241031 E94 .71- .28- 241008 E62 .22- .35- 241024 E94 .74- .24+ 241101 Q62 .03+ .18- 241008 E62 .17- .14- 241025 W68 .31+ .68+ 241101 Q62 .16+ .08+ 241008 M49 .03- .12+ 241025 W68 .42+ .49- 241102 W68 .29- .07+ 241008 M49 .01- .10+ 241025 W68 .67- .11- 241102 W68 .52+ .18+ 241008 M49 .03- .02+ 241025 W68 .07- .14- 241102 W68 .31+ .28+ 241011 I47 .28- .11- 241025 K95 .53- 1.0+ 241102 W68 .12- .20- 241011 I47 .08- .04+ 241025 K95 .15- .08+ 241106 W68 .23+ .58- 241015 W85 .18+ .03- 241025 K95 .40+ .26+ 241106 W68 .02+ .11- 241015 W85 .20+ .05+ 241025 K95 .01- .33+ 241106 W68 .42- .26+ 241015 W85 .23+ .03+ 241025 K95 .45+ .39- 241106 W68 .35+ .41+ Ephemerides (geocentric): Date (UTC) HH RA Dec delta r elong mag " sig PA ---- -------- ------------ ------------ ------ ------ ----- --- -------- 2024 11 07 19 01 04 50.265 -54 10 59.14 7.8872 8.2108 105.7 19.2 .167 20 2024 11 07 20 01 04 49.161 -54 10 52.94 7.8873 8.2106 105.7 19.2 .168 20 2024 11 07 21 01 04 48.059 -54 10 46.72 7.8874 8.2103 105.7 19.2 .169 20 2024 11 07 22 01 04 46.957 -54 10 40.49 7.8875 8.2101 105.6 19.2 .170 20 2024 11 07 23 01 04 45.855 -54 10 34.25 7.8876 8.2098 105.6 19.2 .171 20 2024 11 08 00 01 04 44.755 -54 10 28.00 7.8877 8.2096 105.6 19.2 .172 20 2024 11 08 01 01 04 43.655 -54 10 21.73 7.8878 8.2093 105.6 19.2 .173 20 2024 11 08 02 01 04 42.556 -54 10 15.46 7.8879 8.2090 105.5 19.2 .174 20 2024 11 08 03 01 04 41.458 -54 10 09.17 7.8880 8.2088 105.5 19.2 .174 20 2024 11 08 04 01 04 40.361 -54 10 02.87 7.8881 8.2085 105.5 19.2 .175 20 2024 11 08 05 01 04 39.265 -54 09 56.55 7.8882 8.2083 105.5 19.2 .176 20 2024 11 08 06 01 04 38.169 -54 09 50.23 7.8883 8.2080 105.4 19.2 .177 20 2024 11 08 07 01 04 37.074 -54 09 43.89 7.8885 8.2077 105.4 19.2 .178 20 2024 11 08 08 01 04 35.980 -54 09 37.54 7.8886 8.2075 105.4 19.2 .179 20 2024 11 08 09 01 04 34.887 -54 09 31.18 7.8887 8.2072 105.4 19.2 .180 20 2024 11 08 10 01 04 33.795 -54 09 24.80 7.8888 8.2070 105.4 19.2 .181 20 2024 11 08 11 01 04 32.703 -54 09 18.42 7.8889 8.2067 105.3 19.2 .182 20 2024 11 08 12 01 04 31.613 -54 09 12.02 7.8890 8.2064 105.3 19.2 .183 20 2024 11 08 13 01 04 30.523 -54 09 05.61 7.8891 8.2062 105.3 19.2 .184 20 2024 11 08 14 01 04 29.434 -54 08 59.18 7.8892 8.2059 105.3 19.2 .185 20 2024 11 08 15 01 04 28.345 -54 08 52.75 7.8893 8.2057 105.2 19.2 .185 20 2024 11 08 16 01 04 27.258 -54 08 46.30 7.8894 8.2054 105.2 19.2 .186 20 2024 11 08 17 01 04 26.171 -54 08 39.84 7.8895 8.2052 105.2 19.2 .187 20 2024 11 08 18 01 04 25.086 -54 08 33.37 7.8896 8.2049 105.2 19.2 .188 20 2024 11 08 19 01 04 24.001 -54 08 26.89 7.8897 8.2046 105.2 19.2 .189 20 2024 11 08 20 01 04 22.917 -54 08 20.39 7.8898 8.2044 105.1 19.2 .190 20 2024 11 08 21 01 04 21.833 -54 08 13.88 7.8899 8.2041 105.1 19.2 .191 20 2024 11 08 22 01 04 20.751 -54 08 07.36 7.8901 8.2039 105.1 19.2 .192 20 2024 11 08 23 01 04 19.669 -54 08 00.83 7.8902 8.2036 105.1 19.2 .193 20 2024 11 09 00 01 04 18.589 -54 07 54.29 7.8903 8.2033 105.0 19.2 .194 20 2024 11 09 01 01 04 17.509 -54 07 47.73 7.8904 8.2031 105.0 19.2 .195 20 2024 11 09 02 01 04 16.430 -54 07 41.16 7.8905 8.2028 105.0 19.2 .196 20 2024 11 09 03 01 04 15.351 -54 07 34.58 7.8906 8.2026 105.0 19.2 .197 20 2024 11 09 04 01 04 14.274 -54 07 27.99 7.8907 8.2023 105.0 19.2 .198 20 2024 11 09 05 01 04 13.197 -54 07 21.39 7.8908 8.2020 104.9 19.2 .198 20 2024 11 09 06 01 04 12.122 -54 07 14.77 7.8909 8.2018 104.9 19.2 .199 21 2024 11 09 07 01 04 11.047 -54 07 08.14 7.8910 8.2015 104.9 19.2 .200 21 2024 11 09 08 01 04 09.973 -54 07 01.50 7.8911 8.2013 104.9 19.2 .201 21 2024 11 09 09 01 04 08.899 -54 06 54.85 7.8912 8.2010 104.8 19.2 .202 21 2024 11 09 10 01 04 07.827 -54 06 48.18 7.8914 8.2008 104.8 19.2 .203 21 2024 11 09 11 01 04 06.755 -54 06 41.51 7.8915 8.2005 104.8 19.2 .204 21 2024 11 09 12 01 04 05.685 -54 06 34.82 7.8916 8.2002 104.8 19.2 .205 21 2024 11 09 13 01 04 04.615 -54 06 28.12 7.8917 8.2000 104.8 19.2 .206 21 2024 11 09 14 01 04 03.546 -54 06 21.41 7.8918 8.1997 104.7 19.2 .207 21 2024 11 09 15 01 04 02.478 -54 06 14.68 7.8919 8.1995 104.7 19.2 .208 21 2024 11 09 16 01 04 01.411 -54 06 07.95 7.8920 8.1992 104.7 19.2 .209 21 2024 11 09 17 01 04 00.344 -54 06 01.20 7.8921 8.1989 104.7 19.2 .210 21 2024 11 09 18 01 03 59.279 -54 05 54.44 7.8922 8.1987 104.6 19.2 .211 21